owner,sensor,date,latitude,longitude,vertical_datum,wind_speed,wind_to_direction,wind_speed_of_gust,qcFlag 
TCOON,ioos:station:TCOON:518:1,2019-04-01T00:00:00Z,29.5150,-94.5133,0.0,99.0,-9999.0,99.0,'11144222,99999999,11144222' 
TCOON,ioos:station:TCOON:518:1,2019-04-01T00:06:00Z,29.5150,-94.5133,0.0,6.7,32.0,7.5,'11111222,11111222,11111222' 
TCOON,ioos:station:TCOON:518:1,2019-04-01T00:12:00Z,29.5150,-94.5133,0.0,6.2,39.0,7.9,'11111222,11111222,11111222' 
TCOON,ioos:station:TCOON:518:1,2019-04-01T00:18:00Z,29.5150,-94.5133,0.0,99.0,-9999.0,99.0,'11144222,99999999,11144222' 
TCOON,ioos:station:TCOON:518:1,2019-04-01T00:24:00Z,29.5150,-94.5133,0.0,99.0,-9999.0,99.0,'11144222,99999999,11144222' 
TCOON,ioos:station:TCOON:518:1,2019-04-01T00:30:00Z,29.5150,-94.5133,0.0,99.0,-9999.0,99.0,'11144222,99999999,11144222' 
TCOON,ioos:station:TCOON:518:1,2019-04-01T00:36:00Z,29.5150,-94.5133,0.0,99.0,-9999.0,99.0,'11144222,99999999,11144222' 
TCOON,ioos:station:TCOON:518:1,2019-04-01T00:42:00Z,29.5150,-94.5133,0.0,99.0,-9999.0,99.0,'11144222,99999999,11144222' 
TCOON,ioos:station:TCOON:518:1,2019-04-01T00:48:00Z,29.5150,-94.5133,0.0,5.8,25.0,6.6,'11111222,11111222,11111222' 
TCOON,ioos:station:TCOON:518:1,2019-04-01T00:54:00Z,29.5150,-94.5133,0.0,5.9,30.0,7.0,'11111222,11111222,11111222' 
TCOON,ioos:station:TCOON:518:1,2019-04-01T01:00:00Z,29.5150,-94.5133,0.0,5.8,37.0,6.5,'11111222,11111222,11111222' 
TCOON,ioos:station:TCOON:518:1,2019-04-01T01:06:00Z,29.5150,-94.5133,0.0,99.0,-9999.0,99.0,'11144222,99999999,11144222' 
TCOON,ioos:station:TCOON:518:1,2019-04-01T01:12:00Z,29.5150,-94.5133,0.0,99.0,-9999.0,99.0,'11144222,99999999,11144222' 
TCOON,ioos:station:TCOON:518:1,2019-04-01T01:18:00Z,29.5150,-94.5133,0.0,99.0,-9999.0,99.0,'11144222,99999999,11144222' 
TCOON,ioos:station:TCOON:518:1,2019-04-01T01:24:00Z,29.5150,-94.5133,0.0,99.0,-9999.0,99.0,'11144222,99999999,11144222' 
TCOON,ioos:station:TCOON:518:1,2019-04-01T01:30:00Z,29.5150,-94.5133,0.0,99.0,-9999.0,99.0,'11144222,99999999,11144222' 
TCOON,ioos:station:TCOON:518:1,2019-04-01T01:36:00Z,29.5150,-94.5133,0.0,5.0,37.0,6.2,'11111222,11111222,11111222' 
TCOON,ioos:station:TCOON:518:1,2019-04-01T01:42:00Z,29.5150,-94.5133,0.0,5.5,38.0,6.6,'11111222,11111222,11111222' 
TCOON,ioos:station:TCOON:518:1,2019-04-01T01:48:00Z,29.5150,-94.5133,0.0,5.5,42.0,6.8,'11111222,11111222,11111222' 
TCOON,ioos:station:TCOON:518:1,2019-04-01T01:54:00Z,29.5150,-94.5133,0.0,6.2,43.0,7.1,'11111222,11111222,11111222' 
TCOON,ioos:station:TCOON:518:1,2019-04-01T02:00:00Z,29.5150,-94.5133,0.0,6.3,45.0,7.7,'11111222,11111222,11111222' 
TCOON,ioos:station:TCOON:518:1,2019-04-01T02:06:00Z,29.5150,-94.5133,0.0,5.9,43.0,7.1,'11111222,11111222,11111222' 
TCOON,ioos:station:TCOON:518:1,2019-04-01T02:12:00Z,29.5150,-94.5133,0.0,5.8,43.0,7.0,'11111222,11111222,11111222' 
TCOON,ioos:station:TCOON:518:1,2019-04-01T02:18:00Z,29.5150,-94.5133,0.0,99.0,-9999.0,99.0,'11144222,99999999,11144222' 
TCOON,ioos:station:TCOON:518:1,2019-04-01T02:24:00Z,29.5150,-94.5133,0.0,99.0,-9999.0,99.0,'11144222,99999999,11144222' 
TCOON,ioos:station:TCOON:518:1,2019-04-01T02:30:00Z,29.5150,-94.5133,0.0,99.0,-9999.0,99.0,'11144222,99999999,11144222' 
TCOON,ioos:station:TCOON:518:1,2019-04-01T02:36:00Z,29.5150,-94.5133,0.0,99.0,-9999.0,99.0,'11144222,99999999,11144222' 
TCOON,ioos:station:TCOON:518:1,2019-04-01T02:42:00Z,29.5150,-94.5133,0.0,99.0,-9999.0,99.0,'11144222,99999999,11144222' 
TCOON,ioos:station:TCOON:518:1,2019-04-01T02:48:00Z,29.5150,-94.5133,0.0,99.0,-9999.0,99.0,'11144222,99999999,11144222' 
TCOON,ioos:station:TCOON:518:1,2019-04-01T02:54:00Z,29.5150,-94.5133,0.0,6.4,50.0,7.3,'11111222,11111222,11111222' 
TCOON,ioos:station:TCOON:518:1,2019-04-01T03:00:00Z,29.5150,-94.5133,0.0,6.1,44.0,7.5,'11111222,11111222,11111222' 
TCOON,ioos:station:TCOON:518:1,2019-04-01T03:06:00Z,29.5150,-94.5133,0.0,6.0,44.0,7.3,'11111222,11111222,11111222' 
TCOON,ioos:station:TCOON:518:1,2019-04-01T03:12:00Z,29.5150,-94.5133,0.0,5.8,52.0,6.7,'11111222,11111222,11111222' 
TCOON,ioos:station:TCOON:518:1,2019-04-01T03:18:00Z,29.5150,-94.5133,0.0,5.9,55.0,7.1,'11111222,11111222,11111222' 
TCOON,ioos:station:TCOON:518:1,2019-04-01T03:24:00Z,29.5150,-94.5133,0.0,5.6,52.0,7.1,'11111222,11111222,11111222' 
TCOON,ioos:station:TCOON:518:1,2019-04-01T03:30:00Z,29.5150,-94.5133,0.0,5.2,64.0,6.3,'11111222,11111222,11111222' 
TCOON,ioos:station:TCOON:518:1,2019-04-01T03:36:00Z,29.5150,-94.5133,0.0,99.0,-9999.0,99.0,'11144222,99999999,11144222' 
TCOON,ioos:station:TCOON:518:1,2019-04-01T03:42:00Z,29.5150,-94.5133,0.0,99.0,-9999.0,99.0,'11144222,99999999,11144222' 
TCOON,ioos:station:TCOON:518:1,2019-04-01T03:48:00Z,29.5150,-94.5133,0.0,4.9,46.0,6.0,'11111222,11111222,11111222' 
TCOON,ioos:station:TCOON:518:1,2019-04-01T03:54:00Z,29.5150,-94.5133,0.0,4.7,42.0,6.3,'11111222,11111222,11111222' 
TCOON,ioos:station:TCOON:518:1,2019-04-01T04:00:00Z,29.5150,-94.5133,0.0,4.7,43.0,5.6,'11111222,11111222,11111222' 
TCOON,ioos:station:TCOON:518:1,2019-04-01T04:06:00Z,29.5150,-94.5133,0.0,4.4,42.0,6.0,'11111222,11111222,11111222' 
TCOON,ioos:station:TCOON:518:1,2019-04-01T04:12:00Z,29.5150,-94.5133,0.0,4.5,39.0,5.6,'11111222,11111222,11111222' 
TCOON,ioos:station:TCOON:518:1,2019-04-01T04:18:00Z,29.5150,-94.5133,0.0,4.5,41.0,5.8,'11111222,11111222,11111222' 
TCOON,ioos:station:TCOON:518:1,2019-04-01T04:24:00Z,29.5150,-94.5133,0.0,99.0,-9999.0,99.0,'11144222,99999999,11144222' 
TCOON,ioos:station:TCOON:518:1,2019-04-01T04:30:00Z,29.5150,-94.5133,0.0,99.0,-9999.0,99.0,'11144222,99999999,11144222' 
TCOON,ioos:station:TCOON:518:1,2019-04-01T04:36:00Z,29.5150,-94.5133,0.0,99.0,-9999.0,99.0,'11144222,99999999,11144222' 
TCOON,ioos:station:TCOON:518:1,2019-04-01T04:42:00Z,29.5150,-94.5133,0.0,99.0,-9999.0,99.0,'11144222,99999999,11144222' 
TCOON,ioos:station:TCOON:518:1,2019-04-01T04:48:00Z,29.5150,-94.5133,0.0,99.0,-9999.0,99.0,'11144222,99999999,11144222' 
TCOON,ioos:station:TCOON:518:1,2019-04-01T04:54:00Z,29.5150,-94.5133,0.0,3.9,38.0,5.0,'11111222,11111222,11111222' 
TCOON,ioos:station:TCOON:518:1,2019-04-01T05:00:00Z,29.5150,-94.5133,0.0,3.7,38.0,4.8,'11111222,11111222,11111222' 
TCOON,ioos:station:TCOON:518:1,2019-04-01T05:06:00Z,29.5150,-94.5133,0.0,99.0,-9999.0,99.0,'11144222,99999999,11144222' 
TCOON,ioos:station:TCOON:518:1,2019-04-01T05:12:00Z,29.5150,-94.5133,0.0,99.0,-9999.0,99.0,'11144222,99999999,11144222' 
TCOON,ioos:station:TCOON:518:1,2019-04-01T05:18:00Z,29.5150,-94.5133,0.0,99.0,-9999.0,99.0,'11144222,99999999,11144222' 
TCOON,ioos:station:TCOON:518:1,2019-04-01T05:24:00Z,29.5150,-94.5133,0.0,99.0,-9999.0,99.0,'11144222,99999999,11144222' 
TCOON,ioos:station:TCOON:518:1,2019-04-01T05:30:00Z,29.5150,-94.5133,0.0,3.0,26.0,3.7,'11111222,11111222,11111222' 
TCOON,ioos:station:TCOON:518:1,2019-04-01T05:36:00Z,29.5150,-94.5133,0.0,3.0,30.0,3.6,'11111222,11111222,11111222' 
TCOON,ioos:station:TCOON:518:1,2019-04-01T05:42:00Z,29.5150,-94.5133,0.0,2.8,30.0,3.6,'11111222,11111222,11111222' 
TCOON,ioos:station:TCOON:518:1,2019-04-01T05:48:00Z,29.5150,-94.5133,0.0,2.9,41.0,3.5,'11111222,11111222,11111222' 
TCOON,ioos:station:TCOON:518:1,2019-04-01T05:54:00Z,29.5150,-94.5133,0.0,3.1,34.0,3.7,'11111222,11111222,11111222' 
TCOON,ioos:station:TCOON:518:1,2019-04-01T06:00:00Z,29.5150,-94.5133,0.0,2.9,34.0,3.4,'11111222,11111222,11111222' 
TCOON,ioos:station:TCOON:518:1,2019-04-01T06:06:00Z,29.5150,-94.5133,0.0,3.1,26.0,3.5,'11111222,11111222,11111222' 
TCOON,ioos:station:TCOON:518:1,2019-04-01T06:12:00Z,29.5150,-94.5133,0.0,3.0,32.0,3.6,'11111222,11111222,11111222' 
TCOON,ioos:station:TCOON:518:1,2019-04-01T06:18:00Z,29.5150,-94.5133,0.0,3.2,31.0,3.8,'11111222,11111222,11111222' 
TCOON,ioos:station:TCOON:518:1,2019-04-01T06:24:00Z,29.5150,-94.5133,0.0,3.3,32.0,4.0,'11111222,11111222,11111222' 
TCOON,ioos:station:TCOON:518:1,2019-04-01T06:30:00Z,29.5150,-94.5133,0.0,3.6,32.0,4.4,'11111222,11111222,11111222' 
TCOON,ioos:station:TCOON:518:1,2019-04-01T06:36:00Z,29.5150,-94.5133,0.0,4.1,34.0,4.6,'11111222,11111222,11111222' 
TCOON,ioos:station:TCOON:518:1,2019-04-01T06:42:00Z,29.5150,-94.5133,0.0,4.0,36.0,4.8,'11111222,11111222,11111222' 
TCOON,ioos:station:TCOON:518:1,2019-04-01T06:48:00Z,29.5150,-94.5133,0.0,4.1,42.0,4.8,'11111222,11111222,11111222' 
TCOON,ioos:station:TCOON:518:1,2019-04-01T06:54:00Z,29.5150,-94.5133,0.0,99.0,-9999.0,99.0,'11144222,99999999,11144222' 
TCOON,ioos:station:TCOON:518:1,2019-04-01T07:00:00Z,29.5150,-94.5133,0.0,99.0,-9999.0,99.0,'11144222,99999999,11144222' 
TCOON,ioos:station:TCOON:518:1,2019-04-01T07:06:00Z,29.5150,-94.5133,0.0,99.0,-9999.0,99.0,'11144222,99999999,11144222' 
TCOON,ioos:station:TCOON:518:1,2019-04-01T07:12:00Z,29.5150,-94.5133,0.0,99.0,-9999.0,99.0,'11144222,99999999,11144222' 
TCOON,ioos:station:TCOON:518:1,2019-04-01T07:18:00Z,29.5150,-94.5133,0.0,99.0,-9999.0,99.0,'11144222,99999999,11144222' 
TCOON,ioos:station:TCOON:518:1,2019-04-01T07:24:00Z,29.5150,-94.5133,0.0,99.0,-9999.0,99.0,'11144222,99999999,11144222' 
TCOON,ioos:station:TCOON:518:1,2019-04-01T07:30:00Z,29.5150,-94.5133,0.0,99.0,-9999.0,99.0,'11144222,99999999,11144222' 
TCOON,ioos:station:TCOON:518:1,2019-04-01T07:36:00Z,29.5150,-94.5133,0.0,99.0,-9999.0,99.0,'11144222,99999999,11144222' 
TCOON,ioos:station:TCOON:518:1,2019-04-01T07:42:00Z,29.5150,-94.5133,0.0,99.0,-9999.0,99.0,'11144222,99999999,11144222' 
TCOON,ioos:station:TCOON:518:1,2019-04-01T07:48:00Z,29.5150,-94.5133,0.0,5.1,42.0,6.1,'11111222,11111222,11111222' 
TCOON,ioos:station:TCOON:518:1,2019-04-01T07:54:00Z,29.5150,-94.5133,0.0,5.6,41.0,6.2,'11111222,11111222,11111222' 
TCOON,ioos:station:TCOON:518:1,2019-04-01T08:00:00Z,29.5150,-94.5133,0.0,5.5,43.0,6.3,'11111222,11111222,11111222' 
TCOON,ioos:station:TCOON:518:1,2019-04-01T08:06:00Z,29.5150,-94.5133,0.0,5.4,43.0,6.9,'11111222,11111222,11111222' 
TCOON,ioos:station:TCOON:518:1,2019-04-01T08:12:00Z,29.5150,-94.5133,0.0,5.8,39.0,6.8,'11111222,11111222,11111222' 
TCOON,ioos:station:TCOON:518:1,2019-04-01T08:18:00Z,29.5150,-94.5133,0.0,5.9,35.0,6.8,'11111222,11111222,11111222' 
TCOON,ioos:station:TCOON:518:1,2019-04-01T08:24:00Z,29.5150,-94.5133,0.0,5.8,38.0,6.7,'11111222,11111222,11111222' 
TCOON,ioos:station:TCOON:518:1,2019-04-01T08:30:00Z,29.5150,-94.5133,0.0,5.7,40.0,6.9,'11111222,11111222,11111222' 
TCOON,ioos:station:TCOON:518:1,2019-04-01T08:36:00Z,29.5150,-94.5133,0.0,99.0,-9999.0,99.0,'11144222,99999999,11144222' 
TCOON,ioos:station:TCOON:518:1,2019-04-01T08:42:00Z,29.5150,-94.5133,0.0,99.0,-9999.0,99.0,'11144222,99999999,11144222' 
TCOON,ioos:station:TCOON:518:1,2019-04-01T08:48:00Z,29.5150,-94.5133,0.0,99.0,-9999.0,99.0,'11144222,99999999,11144222' 
TCOON,ioos:station:TCOON:518:1,2019-04-01T08:54:00Z,29.5150,-94.5133,0.0,99.0,-9999.0,99.0,'11144222,99999999,11144222' 
TCOON,ioos:station:TCOON:518:1,2019-04-01T09:00:00Z,29.5150,-94.5133,0.0,99.0,-9999.0,99.0,'11144222,99999999,11144222' 
TCOON,ioos:station:TCOON:518:1,2019-04-01T09:06:00Z,29.5150,-94.5133,0.0,99.0,-9999.0,99.0,'11144222,99999999,11144222' 
TCOON,ioos:station:TCOON:518:1,2019-04-01T09:12:00Z,29.5150,-94.5133,0.0,99.0,-9999.0,99.0,'11144222,99999999,11144222' 
TCOON,ioos:station:TCOON:518:1,2019-04-01T09:18:00Z,29.5150,-94.5133,0.0,99.0,-9999.0,99.0,'11144222,99999999,11144222' 
TCOON,ioos:station:TCOON:518:1,2019-04-01T09:24:00Z,29.5150,-94.5133,0.0,99.0,-9999.0,99.0,'11144222,99999999,11144222' 
TCOON,ioos:station:TCOON:518:1,2019-04-01T09:30:00Z,29.5150,-94.5133,0.0,99.0,-9999.0,99.0,'11144222,99999999,11144222' 
TCOON,ioos:station:TCOON:518:1,2019-04-01T09:36:00Z,29.5150,-94.5133,0.0,5.9,34.0,6.6,'11111222,11111222,11111222' 
TCOON,ioos:station:TCOON:518:1,2019-04-01T09:42:00Z,29.5150,-94.5133,0.0,5.6,40.0,6.4,'11111222,11111222,11111222' 
TCOON,ioos:station:TCOON:518:1,2019-04-01T09:48:00Z,29.5150,-94.5133,0.0,5.5,41.0,6.8,'11111222,11111222,11111222' 
TCOON,ioos:station:TCOON:518:1,2019-04-01T09:54:00Z,29.5150,-94.5133,0.0,99.0,-9999.0,99.0,'11144222,99999999,11144222' 
TCOON,ioos:station:TCOON:518:1,2019-04-01T10:00:00Z,29.5150,-94.5133,0.0,99.0,-9999.0,99.0,'11144222,99999999,11144222' 
TCOON,ioos:station:TCOON:518:1,2019-04-01T10:06:00Z,29.5150,-94.5133,0.0,99.0,-9999.0,99.0,'11144222,99999999,11144222' 
TCOON,ioos:station:TCOON:518:1,2019-04-01T10:12:00Z,29.5150,-94.5133,0.0,99.0,-9999.0,99.0,'11144222,99999999,11144222' 
TCOON,ioos:station:TCOON:518:1,2019-04-01T10:18:00Z,29.5150,-94.5133,0.0,99.0,-9999.0,99.0,'11144222,99999999,11144222' 
TCOON,ioos:station:TCOON:518:1,2019-04-01T10:24:00Z,29.5150,-94.5133,0.0,99.0,-9999.0,99.0,'11144222,99999999,11144222' 
TCOON,ioos:station:TCOON:518:1,2019-04-01T10:30:00Z,29.5150,-94.5133,0.0,99.0,-9999.0,99.0,'11144222,99999999,11144222' 
TCOON,ioos:station:TCOON:518:1,2019-04-01T10:36:00Z,29.5150,-94.5133,0.0,99.0,-9999.0,99.0,'11144222,99999999,11144222' 
TCOON,ioos:station:TCOON:518:1,2019-04-01T10:42:00Z,29.5150,-94.5133,0.0,99.0,-9999.0,99.0,'11144222,99999999,11144222' 
TCOON,ioos:station:TCOON:518:1,2019-04-01T10:48:00Z,29.5150,-94.5133,0.0,99.0,-9999.0,99.0,'11144222,99999999,11144222' 
TCOON,ioos:station:TCOON:518:1,2019-04-01T10:54:00Z,29.5150,-94.5133,0.0,99.0,-9999.0,99.0,'11144222,99999999,11144222' 
TCOON,ioos:station:TCOON:518:1,2019-04-01T11:00:00Z,29.5150,-94.5133,0.0,99.0,-9999.0,99.0,'11144222,99999999,11144222' 
TCOON,ioos:station:TCOON:518:1,2019-04-01T11:06:00Z,29.5150,-94.5133,0.0,99.0,-9999.0,99.0,'11144222,99999999,11144222' 
TCOON,ioos:station:TCOON:518:1,2019-04-01T11:12:00Z,29.5150,-94.5133,0.0,99.0,-9999.0,99.0,'11144222,99999999,11144222' 
TCOON,ioos:station:TCOON:518:1,2019-04-01T11:18:00Z,29.5150,-94.5133,0.0,99.0,-9999.0,99.0,'11144222,99999999,11144222' 
TCOON,ioos:station:TCOON:518:1,2019-04-01T11:24:00Z,29.5150,-94.5133,0.0,99.0,-9999.0,99.0,'11144222,99999999,11144222' 
TCOON,ioos:station:TCOON:518:1,2019-04-01T11:30:00Z,29.5150,-94.5133,0.0,99.0,-9999.0,99.0,'11144222,99999999,11144222' 
TCOON,ioos:station:TCOON:518:1,2019-04-01T11:36:00Z,29.5150,-94.5133,0.0,5.8,20.0,6.9,'11111222,11111222,11111222' 
TCOON,ioos:station:TCOON:518:1,2019-04-01T11:42:00Z,29.5150,-94.5133,0.0,5.2,26.0,6.3,'11111222,11111222,11111222' 
TCOON,ioos:station:TCOON:518:1,2019-04-01T11:48:00Z,29.5150,-94.5133,0.0,5.6,24.0,6.8,'11111222,11111222,11111222' 
TCOON,ioos:station:TCOON:518:1,2019-04-01T11:54:00Z,29.5150,-94.5133,0.0,5.9,26.0,7.0,'11111222,11111222,11111222' 
TCOON,ioos:station:TCOON:518:1,2019-04-01T12:00:00Z,29.5150,-94.5133,0.0,6.2,32.0,7.2,'11111222,11111222,11111222' 
TCOON,ioos:station:TCOON:518:1,2019-04-01T12:06:00Z,29.5150,-94.5133,0.0,99.0,-9999.0,99.0,'11144222,99999999,11144222' 
TCOON,ioos:station:TCOON:518:1,2019-04-01T12:12:00Z,29.5150,-94.5133,0.0,99.0,-9999.0,99.0,'11144222,99999999,11144222' 
TCOON,ioos:station:TCOON:518:1,2019-04-01T12:18:00Z,29.5150,-94.5133,0.0,99.0,-9999.0,99.0,'11144222,99999999,11144222' 
TCOON,ioos:station:TCOON:518:1,2019-04-01T12:24:00Z,29.5150,-94.5133,0.0,6.4,25.0,7.8,'11111222,11111222,11111222' 
TCOON,ioos:station:TCOON:518:1,2019-04-01T12:30:00Z,29.5150,-94.5133,0.0,6.0,21.0,7.4,'11111222,11111222,11111222' 
TCOON,ioos:station:TCOON:518:1,2019-04-01T12:36:00Z,29.5150,-94.5133,0.0,6.6,20.0,7.9,'11111222,11111222,11111222' 
TCOON,ioos:station:TCOON:518:1,2019-04-01T12:42:00Z,29.5150,-94.5133,0.0,5.9,23.0,7.3,'11111222,11111222,11111222' 
TCOON,ioos:station:TCOON:518:1,2019-04-01T12:48:00Z,29.5150,-94.5133,0.0,6.3,25.0,6.9,'11111222,11111222,11111222' 
TCOON,ioos:station:TCOON:518:1,2019-04-01T12:54:00Z,29.5150,-94.5133,0.0,99.0,-9999.0,99.0,'11144222,99999999,11144222' 
TCOON,ioos:station:TCOON:518:1,2019-04-01T13:00:00Z,29.5150,-94.5133,0.0,99.0,-9999.0,99.0,'11144222,99999999,11144222' 
TCOON,ioos:station:TCOON:518:1,2019-04-01T13:06:00Z,29.5150,-94.5133,0.0,6.6,30.0,7.6,'11111222,11111222,11111222' 
TCOON,ioos:station:TCOON:518:1,2019-04-01T13:12:00Z,29.5150,-94.5133,0.0,6.4,30.0,7.6,'11111222,11111222,11111222' 
TCOON,ioos:station:TCOON:518:1,2019-04-01T13:18:00Z,29.5150,-94.5133,0.0,6.2,32.0,7.8,'11111222,11111222,11111222' 
TCOON,ioos:station:TCOON:518:1,2019-04-01T13:24:00Z,29.5150,-94.5133,0.0,99.0,-9999.0,99.0,'11144222,99999999,11144222' 
TCOON,ioos:station:TCOON:518:1,2019-04-01T13:30:00Z,29.5150,-94.5133,0.0,99.0,-9999.0,99.0,'11144222,99999999,11144222' 
TCOON,ioos:station:TCOON:518:1,2019-04-01T13:36:00Z,29.5150,-94.5133,0.0,6.4,38.0,7.6,'11111222,11111222,11111222' 
TCOON,ioos:station:TCOON:518:1,2019-04-01T13:42:00Z,29.5150,-94.5133,0.0,6.3,39.0,7.4,'11111222,11111222,11111222' 
TCOON,ioos:station:TCOON:518:1,2019-04-01T13:48:00Z,29.5150,-94.5133,0.0,6.1,44.0,6.8,'11111222,11111222,11111222' 
TCOON,ioos:station:TCOON:518:1,2019-04-01T13:54:00Z,29.5150,-94.5133,0.0,6.0,46.0,6.8,'11111222,11111222,11111222' 
TCOON,ioos:station:TCOON:518:1,2019-04-01T14:00:00Z,29.5150,-94.5133,0.0,5.7,48.0,6.6,'11111222,11111222,11111222' 
TCOON,ioos:station:TCOON:518:1,2019-04-01T14:06:00Z,29.5150,-94.5133,0.0,5.3,46.0,6.3,'11111222,11111222,11111222' 
TCOON,ioos:station:TCOON:518:1,2019-04-01T14:12:00Z,29.5150,-94.5133,0.0,5.5,49.0,7.0,'11111222,11111222,11111222' 
TCOON,ioos:station:TCOON:518:1,2019-04-01T14:18:00Z,29.5150,-94.5133,0.0,5.5,49.0,6.7,'11111222,11111222,11111222' 
TCOON,ioos:station:TCOON:518:1,2019-04-01T14:24:00Z,29.5150,-94.5133,0.0,99.0,-9999.0,99.0,'11144222,99999999,11144222' 
TCOON,ioos:station:TCOON:518:1,2019-04-01T14:30:00Z,29.5150,-94.5133,0.0,99.0,-9999.0,99.0,'11144222,99999999,11144222' 
TCOON,ioos:station:TCOON:518:1,2019-04-01T14:36:00Z,29.5150,-94.5133,0.0,99.0,-9999.0,99.0,'11144222,99999999,11144222' 
TCOON,ioos:station:TCOON:518:1,2019-04-01T14:42:00Z,29.5150,-94.5133,0.0,99.0,-9999.0,99.0,'11144222,99999999,11144222' 
TCOON,ioos:station:TCOON:518:1,2019-04-01T14:48:00Z,29.5150,-94.5133,0.0,5.7,52.0,6.8,'11111222,11111222,11111222' 
TCOON,ioos:station:TCOON:518:1,2019-04-01T14:54:00Z,29.5150,-94.5133,0.0,5.3,50.0,6.9,'11111222,11111222,11111222' 
TCOON,ioos:station:TCOON:518:1,2019-04-01T15:00:00Z,29.5150,-94.5133,0.0,5.7,51.0,6.7,'11111222,11111222,11111222' 
TCOON,ioos:station:TCOON:518:1,2019-04-01T15:06:00Z,29.5150,-94.5133,0.0,99.0,-9999.0,99.0,'11144222,99999999,11144222' 
TCOON,ioos:station:TCOON:518:1,2019-04-01T15:12:00Z,29.5150,-94.5133,0.0,99.0,-9999.0,99.0,'11144222,99999999,11144222' 
TCOON,ioos:station:TCOON:518:1,2019-04-01T15:18:00Z,29.5150,-94.5133,0.0,5.9,52.0,7.0,'11111222,11111222,11111222' 
TCOON,ioos:station:TCOON:518:1,2019-04-01T15:24:00Z,29.5150,-94.5133,0.0,6.2,51.0,7.5,'11111222,11111222,11111222' 
TCOON,ioos:station:TCOON:518:1,2019-04-01T15:30:00Z,29.5150,-94.5133,0.0,5.4,48.0,7.3,'11111222,11111222,11111222' 
TCOON,ioos:station:TCOON:518:1,2019-04-01T15:36:00Z,29.5150,-94.5133,0.0,99.0,-9999.0,99.0,'11144222,99999999,11144222' 
TCOON,ioos:station:TCOON:518:1,2019-04-01T15:42:00Z,29.5150,-94.5133,0.0,99.0,-9999.0,99.0,'11144222,99999999,11144222' 
TCOON,ioos:station:TCOON:518:1,2019-04-01T15:48:00Z,29.5150,-94.5133,0.0,99.0,-9999.0,99.0,'11144222,99999999,11144222' 
TCOON,ioos:station:TCOON:518:1,2019-04-01T15:54:00Z,29.5150,-94.5133,0.0,99.0,-9999.0,99.0,'11144222,99999999,11144222' 
TCOON,ioos:station:TCOON:518:1,2019-04-01T16:00:00Z,29.5150,-94.5133,0.0,99.0,-9999.0,99.0,'11144222,99999999,11144222' 
TCOON,ioos:station:TCOON:518:1,2019-04-01T16:06:00Z,29.5150,-94.5133,0.0,5.2,66.0,6.7,'11111222,11111222,11111222' 
TCOON,ioos:station:TCOON:518:1,2019-04-01T16:12:00Z,29.5150,-94.5133,0.0,4.8,54.0,6.3,'11111222,11111222,11111222' 
TCOON,ioos:station:TCOON:518:1,2019-04-01T16:18:00Z,29.5150,-94.5133,0.0,99.0,-9999.0,99.0,'11144222,99999999,11144222' 
TCOON,ioos:station:TCOON:518:1,2019-04-01T16:24:00Z,29.5150,-94.5133,0.0,99.0,-9999.0,99.0,'11144222,99999999,11144222' 
TCOON,ioos:station:TCOON:518:1,2019-04-01T16:30:00Z,29.5150,-94.5133,0.0,99.0,-9999.0,99.0,'11144222,99999999,11144222' 
TCOON,ioos:station:TCOON:518:1,2019-04-01T16:36:00Z,29.5150,-94.5133,0.0,99.0,-9999.0,99.0,'11144222,99999999,11144222' 
TCOON,ioos:station:TCOON:518:1,2019-04-01T16:42:00Z,29.5150,-94.5133,0.0,99.0,-9999.0,99.0,'11144222,99999999,11144222' 
TCOON,ioos:station:TCOON:518:1,2019-04-01T16:48:00Z,29.5150,-94.5133,0.0,99.0,-9999.0,99.0,'11144222,99999999,11144222' 
TCOON,ioos:station:TCOON:518:1,2019-04-01T16:54:00Z,29.5150,-94.5133,0.0,99.0,-9999.0,99.0,'11144222,99999999,11144222' 
TCOON,ioos:station:TCOON:518:1,2019-04-01T17:00:00Z,29.5150,-94.5133,0.0,99.0,-9999.0,99.0,'11144222,99999999,11144222' 
TCOON,ioos:station:TCOON:518:1,2019-04-01T17:06:00Z,29.5150,-94.5133,0.0,4.0,48.0,5.9,'11111222,11111222,11111222' 
TCOON,ioos:station:TCOON:518:1,2019-04-01T17:12:00Z,29.5150,-94.5133,0.0,6.0,43.0,7.4,'11111222,11111222,11111222' 
TCOON,ioos:station:TCOON:518:1,2019-04-01T17:18:00Z,29.5150,-94.5133,0.0,99.0,-9999.0,99.0,'11144222,99999999,11144222' 
TCOON,ioos:station:TCOON:518:1,2019-04-01T17:24:00Z,29.5150,-94.5133,0.0,99.0,-9999.0,99.0,'11144222,99999999,11144222' 
TCOON,ioos:station:TCOON:518:1,2019-04-01T17:30:00Z,29.5150,-94.5133,0.0,99.0,-9999.0,99.0,'11144222,99999999,11144222' 
TCOON,ioos:station:TCOON:518:1,2019-04-01T17:36:00Z,29.5150,-94.5133,0.0,99.0,-9999.0,99.0,'11144222,99999999,11144222' 
TCOON,ioos:station:TCOON:518:1,2019-04-01T17:42:00Z,29.5150,-94.5133,0.0,99.0,-9999.0,99.0,'11144222,99999999,11144222' 
TCOON,ioos:station:TCOON:518:1,2019-04-01T17:48:00Z,29.5150,-94.5133,0.0,99.0,-9999.0,99.0,'11144222,99999999,11144222' 
TCOON,ioos:station:TCOON:518:1,2019-04-01T17:54:00Z,29.5150,-94.5133,0.0,2.5,44.0,3.0,'11111222,11111222,11111222' 
TCOON,ioos:station:TCOON:518:1,2019-04-01T18:00:00Z,29.5150,-94.5133,0.0,3.2,47.0,4.5,'11111222,11111222,11111222' 
TCOON,ioos:station:TCOON:518:1,2019-04-01T18:06:00Z,29.5150,-94.5133,0.0,99.0,-9999.0,99.0,'11144222,99999999,11144222' 
TCOON,ioos:station:TCOON:518:1,2019-04-01T18:12:00Z,29.5150,-94.5133,0.0,99.0,-9999.0,99.0,'11144222,99999999,11144222' 
TCOON,ioos:station:TCOON:518:1,2019-04-01T18:18:00Z,29.5150,-94.5133,0.0,2.4,52.0,2.9,'11111222,11111222,11111222' 
TCOON,ioos:station:TCOON:518:1,2019-04-01T18:24:00Z,29.5150,-94.5133,0.0,3.3,102.0,3.8,'11111222,11111222,11111222' 
TCOON,ioos:station:TCOON:518:1,2019-04-01T18:30:00Z,29.5150,-94.5133,0.0,1.9,103.0,3.9,'11111222,11111222,11111222' 
TCOON,ioos:station:TCOON:518:1,2019-04-01T18:36:00Z,29.5150,-94.5133,0.0,1.3,124.0,2.1,'11111222,11111222,11111222' 
TCOON,ioos:station:TCOON:518:1,2019-04-01T18:42:00Z,29.5150,-94.5133,0.0,0.5,98.0,1.8,'11111222,11111222,11111222' 
TCOON,ioos:station:TCOON:518:1,2019-04-01T18:48:00Z,29.5150,-94.5133,0.0,99.0,-9999.0,99.0,'11144222,99999999,11144222' 
TCOON,ioos:station:TCOON:518:1,2019-04-01T18:54:00Z,29.5150,-94.5133,0.0,99.0,-9999.0,99.0,'11144222,99999999,11144222' 
TCOON,ioos:station:TCOON:518:1,2019-04-01T19:00:00Z,29.5150,-94.5133,0.0,99.0,-9999.0,99.0,'11144222,99999999,11144222' 
TCOON,ioos:station:TCOON:518:1,2019-04-01T19:06:00Z,29.5150,-94.5133,0.0,99.0,-9999.0,99.0,'11144222,99999999,11144222' 
TCOON,ioos:station:TCOON:518:1,2019-04-01T19:12:00Z,29.5150,-94.5133,0.0,99.0,-9999.0,99.0,'11144222,99999999,11144222' 
TCOON,ioos:station:TCOON:518:1,2019-04-01T19:18:00Z,29.5150,-94.5133,0.0,99.0,-9999.0,99.0,'11144222,99999999,11144222' 
TCOON,ioos:station:TCOON:518:1,2019-04-01T19:24:00Z,29.5150,-94.5133,0.0,99.0,-9999.0,99.0,'11144222,99999999,11144222' 
TCOON,ioos:station:TCOON:518:1,2019-04-01T19:30:00Z,29.5150,-94.5133,0.0,99.0,-9999.0,99.0,'11144222,99999999,11144222' 
TCOON,ioos:station:TCOON:518:1,2019-04-01T19:36:00Z,29.5150,-94.5133,0.0,2.8,356.0,3.6,'11111222,11111222,11111222' 
TCOON,ioos:station:TCOON:518:1,2019-04-01T19:42:00Z,29.5150,-94.5133,0.0,4.0,332.0,5.1,'11111222,11111222,11111222' 
TCOON,ioos:station:TCOON:518:1,2019-04-01T19:48:00Z,29.5150,-94.5133,0.0,2.7,8.0,3.5,'11111222,11111222,11111222' 
TCOON,ioos:station:TCOON:518:1,2019-04-01T19:54:00Z,29.5150,-94.5133,0.0,4.2,334.0,5.6,'11111222,11111222,11111222' 
TCOON,ioos:station:TCOON:518:1,2019-04-01T20:00:00Z,29.5150,-94.5133,0.0,5.1,331.0,6.3,'11111222,11111222,11111222' 